Estación meteorológica de Mataró (Maresme, Maresme)

Consulta los datos en tiempo real de la estación meteorológica de Mataró





Hora UTC 07:30
Temperatura 26.7 ºC
Suelo 15 cm 33.8 ºC
Humedad 50.8 %
Presión 1018.4 hPa
Pluja 0.0 mm
Velocidad viento 4.1 km/h
Dirección viento S
Radiación solar 333.0 W/m²

Webcam

Datos diarios 2026-08-31



Hora UTC (invierno +1h; verano +2h)
Temperatura (ºC) Humedad (%) Presión (hPa) Velocidad viento (km/h) Precipitación (mm) Radiación solar (W/m²)
Hora UTC Aire Suelo 15 cm Humedad Presión Vel. Dir. Vel. Max Dir. Intent. máx 5 min. Rad. Sol.
00:05 23.9 22.6 58.8 1016.4 4.9 NNW 4.9 NNW 0.0 0.1
00:10 23.8 22.3 59.9 1016.4 3.9 NW 6.7 NNW 0.0 0.1
00:15 23.7 22.0 60.7 1016.4 3.2 NW 4.6 N 0.0 0.1
00:20 23.5 21.6 61.6 1016.5 6.0 NW 9.9 NW 0.0 0.1
00:25 23.3 21.4 63.5 1016.5 9.3 NNW 11.6 NW 0.0 0.1
00:30 23.4 21.5 63.8 1016.5 10.3 NW 13.8 NNW 0.0 0.1
00:35 23.5 21.7 63.9 1016.5 8.5 NW 12.4 NNW 0.0 0.1
00:40 23.5 21.8 64.1 1016.5 4.0 WNW 7.4 N 0.0 0.1
00:45 23.4 21.7 64.1 1016.6 4.4 NNW 6.4 NNW 0.0 0.1
00:50 23.1 21.6 62.7 1016.7 4.0 NW 6.0 NW 0.0 0.1
00:55 23.0 21.3 63.1 1016.6 0.7 NNW 2.5 NNW 0.0 0.1
01:00 22.8 21.0 61.3 1016.6 2.0 NNW 3.5 NNW 0.0 0.1
01:05 23.0 20.9 58.9 1016.5 0.9 NW 3.2 NW 0.0 0.1
01:10 23.0 20.8 58.4 1016.6 2.9 NNW 3.9 N 0.0 0.1
01:15 23.0 20.7 57.7 1016.6 2.9 NNW 3.9 N 0.0 0.1
01:20 23.1 20.7 58.1 1016.6 0.7 NW 2.8 WNW 0.0 0.1
01:25 23.2 20.6 58.3 1016.6 0.1 NW 1.8 NW 0.0 0.1
01:30 23.1 20.3 58.7 1016.6 1.8 NW 3.2 WNW 0.0 0.1
01:35 22.8 20.0 59.2 1016.6 3.0 NW 4.9 NNW 0.0 0.1
01:40 22.8 20.0 59.0 1016.7 3.3 NW 5.6 N 0.0 0.1
01:45 22.8 20.2 59.1 1016.7 2.6 NW 4.6 NW 0.0 0.1
01:50 22.9 20.3 59.0 1016.7 3.8 NNW 7.4 NW 0.0 0.1
01:55 23.0 20.5 59.1 1016.7 3.2 NNW 6.0 NNW 0.0 0.1
02:00 23.1 20.8 58.8 1016.7 3.6 N 7.4 N 0.0 0.1
02:05 22.9 20.9 59.6 1016.7 2.4 NNW 4.6 NNW 0.0 0.1
02:10 22.4 20.7 61.2 1016.7 0.2 NNW 2.1 NNW 0.0 0.1
02:15 22.4 20.5 61.5 1016.7 0.6 NE 2.1 NE 0.0 0.1
02:20 22.3 20.1 61.5 1016.7 0.6 NNW 4.2 N 0.0 0.1
02:25 22.1 19.9 61.1 1016.7 4.1 NNW 5.6 NNW 0.0 0.1
02:30 22.2 20.1 60.7 1016.7 4.4 NNW 5.6 NNW 0.0 0.1
02:35 22.2 20.2 60.3 1016.8 5.9 N 7.4 N 0.0 0.1
02:40 22.4 20.3 58.7 1016.8 5.9 N 7.4 N 0.0 0.1
02:45 22.4 20.5 58.0 1016.8 6.3 N 8.1 NNW 0.0 0.1
02:50 22.2 20.6 59.2 1016.7 8.5 NNW 11.3 NNW 0.0 0.1
02:55 22.2 20.6 62.1 1016.7 9.2 NNW 13.1 NNW 0.0 0.1
03:00 22.4 20.7 64.3 1016.8 8.8 NNW 11.6 NW 0.0 0.1
03:05 22.5 20.8 63.9 1016.7 7.8 NW 11.3 NNW 0.0 0.1
03:10 22.5 20.9 65.8 1016.7 7.5 NW 12.7 NW 0.0 0.1
03:15 22.7 21.0 68.3 1016.7 8.4 NW 12.0 WNW 0.0 0.1
03:20 22.8 21.1 67.6 1016.7 7.8 NNW 13.8 NNW 0.0 0.1
03:25 22.9 21.3 65.3 1016.7 8.9 NNW 14.1 NW 0.0 0.1
03:30 23.0 21.5 64.0 1016.7 5.0 NW 8.5 NW 0.0 0.1
03:35 22.9 21.4 62.9 1016.7 4.8 NW 8.5 NNW 0.0 0.1
03:40 22.7 21.3 63.2 1016.7 4.9 WNW 9.2 WNW 0.0 0.1
03:45 22.5 21.0 63.4 1016.7 3.3 NW 7.1 NNW 0.0 0.1
03:50 22.4 20.6 62.4 1016.8 2.7 NNW 6.4 WNW 0.0 0.1
03:55 22.4 20.3 62.6 1016.8 1.9 NE 7.8 NE 0.0 0.1
04:00 22.3 20.2 62.9 1016.8 2.0 NE 6.7 NNW 0.0 0.1
04:05 22.1 20.1 62.7 1016.7 0.5 ESE 2.5 ESE 0.0 0.1
04:10 22.1 20.0 62.4 1016.7 0.5 SW 2.5 WNW 0.0 0.1
04:15 21.9 19.7 62.5 1016.7 0.1 SSE 2.1 SE 0.0 0.1
04:20 21.8 19.5 63.2 1016.8 0.7 SE 2.5 SE 0.0 0.1
04:25 21.6 19.3 64.3 1016.8 0.4 N 1.8 SSW 0.0 0.1
04:30 21.5 19.2 64.5 1016.9 0.3 NW 2.5 NW 0.0 0.1
04:35 21.3 19.0 64.8 1016.9 2.5 NW 4.9 NW 0.0 0.1
04:40 21.3 18.9 64.4 1016.9 4.6 NNW 8.5 N 0.0 0.1
04:45 21.8 19.2 63.4 1016.9 8.3 N 13.8 N 0.0 0.1
04:50 22.4 19.9 62.1 1017.0 7.1 N 10.6 N 0.0 0.2
04:55 22.4 20.5 61.2 1017.0 3.3 N 6.7 NNW 0.0 0.3
05:00 22.2 20.7 61.9 1017.0 2.7 N 4.9 NE 0.0 0.7
05:05 22.3 20.5 61.7 1017.0 3.2 NNE 6.0 N 0.0 1.5
05:10 22.4 20.3 61.3 1017.0 2.4 NE 3.9 NNE 0.0 2.6
05:15 22.1 20.1 61.9 1017.1 3.5 NNE 5.3 NNE 0.0 4.3
05:20 22.3 20.1 61.5 1017.1 2.4 NNE 3.5 NNE 0.0 6.6
05:25 22.4 20.3 60.7 1017.2 4.1 NNE 6.0 NNE 0.0 9.2
05:30 22.5 20.5 60.0 1017.2 3.6 NNE 5.3 NE 0.0 11.7
05:35 22.6 20.5 58.8 1017.2 3.6 NNE 6.0 NNE 0.0 14.2
05:40 22.7 20.4 57.9 1017.3 4.7 NNE 5.6 NNE 0.0 16.8
05:45 22.6 20.4 58.5 1017.3 4.6 NNE 5.6 N 0.0 19.2
05:50 22.6 20.5 58.5 1017.4 3.5 N 4.9 N 0.0 21.7
05:55 22.5 20.6 58.8 1017.4 1.9 NNW 3.9 NW 0.0 23.9
06:00 22.5 20.6 59.1 1017.5 2.4 NE 4.9 ESE 0.0 71.6
06:05 22.6 21.0 59.6 1017.6 4.1 ESE 5.6 ESE 0.0 103.3
06:10 22.9 22.1 58.8 1017.7 2.8 ESE 5.3 ESE 0.0 116.8
06:15 23.2 23.4 57.9 1017.7 1.3 SE 3.2 SE 0.0 130.1
06:20 23.3 24.8 57.8 1017.8 0.0 NNE 0.0 SE 0.0 143.5
06:25 23.5 26.1 57.2 1017.9 0.1 ESE 1.4 ESE 0.0 157.1
06:30 24.0 27.2 56.7 1018.0 0.1 SE 1.4 SE 0.0 170.6
06:35 24.2 28.2 57.2 1018.1 0.1 SE 1.8 SE 0.0 184.2
06:40 24.3 29.1 56.7 1018.1 0.3 ESE 2.1 E 0.0 197.7
06:45 25.0 29.8 54.9 1018.2 0.1 ESE 1.4 ESE 0.0 210.8
06:50 25.4 30.5 52.8 1018.2 0.1 SE 1.8 SE 0.0 224.3
06:55 25.6 31.2 52.3 1018.2 0.5 ESE 2.5 E 0.0 238.5
07:00 25.9 31.6 50.1 1018.2 0.1 ENE 1.8 ENE 0.0 251.9
07:05 25.8 31.9 51.0 1018.3 1.4 SSE 4.6 SE 0.0 265.5
07:10 26.2 32.1 50.4 1018.4 4.0 SSE 5.6 SE 0.0 278.9
07:15 26.4 32.4 49.9 1018.4 2.9 ESE 6.0 ESE 0.0 292.6
07:20 26.6 32.8 49.9 1018.4 3.2 SE 6.0 SSE 0.0 306.5
07:25 26.7 33.3 49.9 1018.4 5.3 SSE 7.8 SSE 0.0 320.1
07:30 26.7 33.8 50.8 1018.4 4.1 S 7.1 SSE 0.0 333.0
Máxima 26.7 33.8 68.3 1018.4 10.3 NW 14.1 NW 0.0 333.0
Mínima 20 18.9 49.9 1016.4
Total 0.0